Regional Weather Roundup
Issued by NWS

Home | Current Version | Previous Version | Graphics & Text | Print | Product List | Glossary On
Versions: 1 2 3 4 5 6 7 8 9 10 11 12 13 14 15 16 17 18 19 20 21 22 23 24 25 26 27 28 29 30 31 32 33 34 35 36 37 38 39 40 41 42 43 44 45 46 47 48 49 50
000
ASUS43 KFSD 231410
RWRSD

WEATHER ROUNDUP FOR SOUTH DAKOTA
NATIONAL WEATHER SERVICE SIOUX FALLS SD
900 AM CDT SUN APR 23 2017

NOTE: "FAIR" INDICATES FEW OR NO CLOUDS BELOW 12,000 FEET WITH NO
SIGNIFICANT WEATHER AND/OR OBSTRUCTIONS TO VISIBILITY.


SDZ001>005-009-010-012>017-231500-
NORTHWEST AND NORTH CENTRAL SOUTH DAKOTA

CITY           SKY/WX    TMP DP  RH WIND       PRES   REMARKS
BUFFALO          N/A     37  32  82 NE21      29.80S
FAITH            N/A     40  38  93 E13       29.85F
MOBRIDGE       CLOUDY    37  32  82 E23       29.94F
$$

SDZ012>016-024>037-041>051-057-063-072>074-231500-
SOUTHWEST AND SOUTH CENTRAL SOUTH DAKOTA

CITY           SKY/WX    TMP DP  RH WIND       PRES   REMARKS
RAPID CTY ARPT MOSUNNY   48  35  60 S12       29.84S
PIERRE         PTSUNNY   50  35  56 SE9       29.92F
CUSTER         CLOUDY    41  29  62 W7        29.89F
ELLSWORTH AFB  PTSUNNY   48  36  61 S12       29.82  HAZE
PHILIP         PTSUNNY   53  36  52 S13       29.86F
PINE RIDGE     MOSUNNY   50  36  58 S22G30    29.89F
SPEARFISH      FAIR      48  36  61 NE3       29.84S
WINNER         FAIR      54  34  46 SW25G33   29.97F
$$

SDZ004>011-016>023-039-040-231500-
NORTHEAST SOUTH DAKOTA

CITY           SKY/WX    TMP DP  RH WIND       PRES   REMARKS
ABERDEEN       CLOUDY    39  35  86 NE18      30.04F
WATERTOWN      CLOUDY    45  38  76 E7        30.03F
BROOKINGS      SUNNY     52  37  56 S9        30.04F
SISSETON         N/A     44  39  82 NE10      30.07F
$$

SDZ017-020-022-023-036>040-048>070-231500-
SOUTHEAST SOUTH DAKOTA

CITY           SKY/WX    TMP DP  RH WIND       PRES   REMARKS
SIOUX FALLS    MOSUNNY   55  37  50 SW9       30.07F
HURON          PTSUNNY   48  37  65 CALM      30.00F
CHAMBERLAIN    SUNNY     55  37  51 S14       29.99F
MITCHELL       SUNNY     56  36  47 S12       30.02F
YANKTON        SUNNY     55  34  44 SW15      30.06F
$$

ABBREVIATIONS USED IN REMARKS
   TC - TEMPERATURE IN CELSIUS
  WCI - WIND CHILL INDEX
   HX - HEAT INDEX
  VSB - VISIBILITY




USA.gov is the U.S. government's official web portal to all federal, state and local government web resources and services.